Precipitable_Water
0.48 0.47 0.49 0.48 0.46 0.48 0.46 0.47 0.55 0.73 0.84 0.82 0.80 0.80 0.77 0.69 0.62 0.51 0.28 0.28 0.32 0.37 0.38 0.36 0.36 0.31 0.24 0.22 0.27 0.26 0.17 0.14 0.17 0.20 0.23 0.27 0.30 0.41 0.49 0.54 0.62 0.67 0.63 0.66 0.75
0.44 0.46 0.46 0.47 0.47 0.47 0.50 0.49 0.45 0.46 0.61 0.81 0.82 0.83 0.85 0.74 0.52 0.38 0.34 0.33 0.33 0.38 0.30 0.27 0.26 0.29 0.18 0.21 0.24 0.21 0.15 0.15 0.20 0.23 0.23 0.26 0.27 0.31 0.42 0.52 0.57 0.63 0.67 0.70 0.70
0.39 0.40 0.42 0.46 0.46 0.46 0.45 0.48 0.48 0.44 0.45 0.53 0.75 0.84 0.92 0.82 0.39 0.30 0.55 0.49 0.43 0.44 0.36 0.33 0.33 0.28 0.17 0.20 0.21 0.22 0.15 0.18 0.20 0.25 0.26 0.26 0.25 0.28 0.36 0.40 0.48 0.42 0.52 0.61 0.62
0.39 0.39 0.39 0.40 0.44 0.45 0.45 0.45 0.50 0.49 0.44 0.46 0.53 0.71 0.92 0.81 0.23 0.51 0.67 0.60 0.46 0.42 0.36 0.31 0.28 0.22 0.17 0.14 0.20 0.17 0.21 0.20 0.20 0.26 0.25 0.24 0.26 0.25 0.25 0.27 0.41 0.50 0.54 0.59 0.58
0.37 0.40 0.42 0.41 0.43 0.42 0.43 0.44 0.46 0.52 0.48 0.45 0.50 0.55 0.71 0.60 0.41 0.62 0.67 0.66 0.52 0.45 0.32 0.29 0.24 0.22 0.16 0.17 0.17 0.17 0.18 0.20 0.21 0.25 0.25 0.25 0.23 0.24 0.23 0.25 0.30 0.52 0.61 0.55 0.57
0.39 0.44 0.43 0.44 0.44 0.42 0.42 0.43 0.44 0.51 0.53 0.48 0.49 0.52 0.45 0.31 0.73 0.56 0.64 0.63 0.57 0.47 0.40 0.38 0.30 0.30 0.22 0.19 0.17 0.19 0.19 0.19 0.21 0.21 0.24 0.22 0.22 0.23 0.23 0.25 0.24 0.42 0.54 0.57 0.56
0.42 0.42 0.44 0.44 0.45 0.43 0.44 0.44 0.44 0.48 0.55 0.51 0.50 0.46 0.30 0.27 0.69 0.70 0.58 0.63 0.64 0.55 0.40 0.44 0.42 0.33 0.29 0.20 0.22 0.19 0.13 0.16 0.17 0.20 0.20 0.23 0.18 0.19 0.24 0.24 0.23 0.22 0.35 0.54 0.60
0.43 0.42 0.41 0.45 0.46 0.45 0.44 0.46 0.46 0.48 0.55 0.52 0.54 0.44 0.19 0.41 0.55 0.59 0.63 0.51 0.66 0.59 0.52 0.53 0.51 0.40 0.34 0.30 0.23 0.18 0.16 0.09 0.12 0.17 0.20 0.20 0.13 0.20 0.24 0.23 0.22 0.22 0.23 0.31 0.51
0.46 0.43 0.41 0.43 0.45 0.47 0.46 0.46 0.48 0.51 0.57 0.55 0.45 0.36 0.16 0.39 0.40 0.32 0.57 0.49 0.51 0.62 0.54 0.59 0.57 0.40 0.36 0.23 0.17 0.17 0.10 0.09 0.11 0.16 0.18 0.19 0.14 0.19 0.23 0.22 0.22 0.22 0.20 0.19 0.20
0.47 0.47 0.43 0.41 0.45 0.47 0.48 0.47 0.47 0.52 0.55 0.55 0.48 0.26 0.22 0.15 0.39 0.52 0.52 0.61 0.48 0.47 0.44 0.45 0.53 0.39 0.31 0.23 0.09 0.11 0.11 0.12 0.10 0.13 0.15 0.15 0.14 0.18 0.19 0.19 0.19 0.20 0.19 0.17 0.15
0.46 0.42 0.39 0.41 0.42 0.44 0.44 0.43 0.30 0.30 0.40 0.24 0.21 0.17 0.27 0.42 0.57 0.49 0.61 0.49 0.54 0.38 0.28 0.38 0.40 0.34 0.29 0.26 0.22 0.17 0.14 0.12 0.13 0.14 0.13 0.12 0.14 0.14 0.18 0.18 0.16 0.15 0.15 0.16 0.16
0.40 0.38 0.36 0.41 0.43 0.43 0.44 0.34 0.38 0.50 0.29 0.37 0.30 0.26 0.25 0.29 0.21 0.41 0.61 0.37 0.39 0.23 0.29 0.35 0.27 0.35 0.41 0.33 0.27 0.22 0.16 0.14 0.16 0.18 0.16 0.13 0.12 0.14 0.14 0.15 0.16 0.16 0.15 0.16 0.17
0.37 0.42 0.43 0.46 0.50 0.41 0.37 0.33 0.48 0.59 0.33 0.29 0.31 0.26 0.24 0.26 0.18 0.17 0.50 0.46 0.31 0.29 0.25 0.25 0.27 0.35 0.39 0.37 0.29 0.25 0.19 0.16 0.15 0.17 0.16 0.15 0.10 0.11 0.12 0.14 0.15 0.17 0.17 0.17 0.17
0.42 0.44 0.47 0.50 0.45 0.46 0.36 0.54 0.58 0.61 0.23 0.19 0.22 0.20 0.25 0.28 0.19 0.16 0.44 0.50 0.38 0.28 0.24 0.29 0.36 0.36 0.31 0.33 0.33 0.22 0.25 0.22 0.19 0.17 0.10 0.15 0.06 0.09 0.09 0.10 0.14 0.16 0.16 0.17 0.18
0.39 0.39 0.47 0.55 0.46 0.36 0.44 0.68 0.69 0.53 0.10 0.15 0.19 0.35 0.25 0.17 0.15 0.14 0.33 0.50 0.36 0.33 0.30 0.25 0.29 0.31 0.31 0.30 0.36 0.27 0.27 0.24 0.23 0.18 0.16 0.15 0.13 0.10 0.12 0.10 0.12 0.15 0.18 0.18 0.19
0.37 0.40 0.50 0.50 0.49 0.47 0.54 0.65 0.58 0.24 0.10 0.14 0.22 0.20 0.21 0.20 0.18 0.17 0.16 0.42 0.51 0.44 0.43 0.27 0.42 0.38 0.34 0.35 0.37 0.37 0.33 0.29 0.26 0.21 0.16 0.13 0.14 0.09 0.10 0.10 0.11 0.15 0.18 0.19 0.18
0.37 0.43 0.47 0.51 0.37 0.51 0.55 0.48 0.26 0.16 0.23 0.16 0.16 0.23 0.19 0.17 0.18 0.18 0.18 0.23 0.26 0.30 0.32 0.28 0.29 0.35 0.35 0.29 0.34 0.36 0.32 0.23 0.19 0.19 0.13 0.15 0.16 0.13 0.16 0.14 0.12 0.13 0.17 0.19 0.19
0.41 0.48 0.48 0.49 0.48 0.49 0.46 0.32 0.16 0.22 0.20 0.20 0.21 0.25 0.23 0.26 0.24 0.22 0.16 0.24 0.30 0.37 0.29 0.25 0.21 0.31 0.31 0.29 0.22 0.23 0.27 0.23 0.17 0.15 0.13 0.20 0.16 0.12 0.19 0.20 0.19 0.18 0.17 0.19 0.19
0.41 0.38 0.44 0.59 0.56 0.49 0.33 0.20 0.20 0.22 0.26 0.20 0.19 0.16 0.20 0.28 0.29 0.31 0.22 0.15 0.31 0.36 0.32 0.28 0.27 0.37 0.34 0.32 0.35 0.25 0.25 0.27 0.24 0.28 0.23 0.20 0.18 0.19 0.21 0.21 0.18 0.17 0.17 0.16 0.17
0.32 0.32 0.49 0.68 0.62 0.45 0.23 0.17 0.26 0.35 0.37 0.34 0.17 0.17 0.15 0.18 0.26 0.35 0.36 0.23 0.19 0.35 0.50 0.37 0.27 0.35 0.34 0.43 0.39 0.34 0.30 0.21 0.29 0.21 0.21 0.24 0.20 0.17 0.17 0.19 0.19 0.17 0.17 0.18 0.22
0.29 0.20 0.52 0.73 0.62 0.36 0.16 0.18 0.26 0.36 0.37 0.33 0.32 0.26 0.19 0.19 0.23 0.30 0.37 0.47 0.43 0.29 0.45 0.49 0.42 0.33 0.39 0.35 0.32 0.33 0.33 0.34 0.29 0.26 0.20 0.19 0.21 0.26 0.21 0.22 0.22 0.22 0.22 0.24 0.27
0.27 0.13 0.40 0.63 0.37 0.37 0.26 0.23 0.26 0.27 0.38 0.34 0.36 0.38 0.32 0.29 0.24 0.24 0.26 0.36 0.53 0.48 0.35 0.43 0.43 0.33 0.34 0.38 0.42 0.41 0.35 0.35 0.28 0.24 0.27 0.23 0.19 0.33 0.29 0.26 0.27 0.29 0.31 0.31 0.29
0.22 0.20 0.41 0.54 0.29 0.33 0.38 0.35 0.34 0.25 0.28 0.32 0.31 0.34 0.35 0.31 0.26 0.28 0.30 0.35 0.35 0.38 0.35 0.47 0.39 0.30 0.31 0.36 0.40 0.40 0.41 0.41 0.40 0.34 0.27 0.23 0.20 0.29 0.31 0.32 0.31 0.29 0.29 0.30 0.31
0.24 0.14 0.22 0.33 0.42 0.35 0.31 0.32 0.33 0.42 0.35 0.33 0.32 0.36 0.35 0.31 0.35 0.29 0.29 0.37 0.42 0.43 0.50 0.46 0.38 0.33 0.26 0.27 0.33 0.25 0.34 0.39 0.40 0.34 0.30 0.29 0.27 0.26 0.29 0.30 0.32 0.31 0.30 0.30 0.32
0.25 0.18 0.24 0.12 0.17 0.26 0.32 0.32 0.29 0.30 0.41 0.39 0.31 0.32 0.30 0.25 0.27 0.25 0.28 0.31 0.34 0.38 0.43 0.46 0.35 0.38 0.35 0.43 0.46 0.43 0.33 0.38 0.37 0.41 0.38 0.37 0.34 0.28 0.31 0.33 0.35 0.36 0.33 0.30 0.34
0.21 0.20 0.26 0.20 0.23 0.19 0.19 0.25 0.26 0.31 0.35 0.32 0.32 0.34 0.36 0.27 0.29 0.26 0.33 0.36 0.33 0.37 0.37 0.41 0.34 0.40 0.37 0.44 0.44 0.39 0.44 0.42 0.40 0.41 0.42 0.44 0.40 0.40 0.38 0.38 0.35 0.35 0.34 0.31 0.34
0.32 0.32 0.29 0.21 0.20 0.17 0.16 0.18 0.21 0.27 0.31 0.37 0.37 0.35 0.34 0.37 0.43 0.43 0.47 0.45 0.43 0.38 0.35 0.37 0.35 0.33 0.26 0.37 0.38 0.31 0.38 0.42 0.40 0.41 0.39 0.36 0.40 0.42 0.40 0.42 0.40 0.40 0.40 0.35 0.34
Wind_Speed
26 27 28 29 29 31 31 32 33 33 32 32 31 32 31 31 30 28 27 27 25 26 24 24 22 22 21 20 21 20 17 17 16 15 12 9 9 9 10 11 9 8 5 4 7
28 29 30 30 30 31 32 33 33 34 35 33 33 33 32 32 31 31 30 31 31 28 27 25 24 23 23 22 22 22 21 22 19 16 13 12 11 11 10 10 9 8 4 6 8
29 30 31 32 32 33 33 34 34 35 35 35 35 34 33 31 32 30 27 26 28 30 29 28 26 25 25 25 25 24 24 23 22 20 18 16 13 12 12 12 13 12 9 9 9
31 32 33 34 34 35 35 35 35 36 36 36 36 35 35 33 30 29 28 26 26 27 28 27 27 27 26 27 27 26 27 25 24 23 20 19 19 16 15 15 14 14 13 12 11
33 34 34 35 35 36 37 37 37 37 37 36 36 36 36 37 37 32 29 28 27 27 28 27 28 28 28 27 28 29 28 27 26 26 26 23 23 21 18 17 14 14 15 15 14
33 34 35 36 36 37 38 38 39 39 38 38 37 37 38 43 38 39 35 32 30 29 29 29 28 28 29 30 30 29 29 29 28 29 28 25 24 22 22 18 17 17 18 18 17
32 34 35 36 37 38 38 39 39 39 40 39 39 39 42 45 37 38 40 38 36 32 32 31 30 29 28 29 31 31 31 30 30 29 29 26 27 25 24 21 21 21 21 22 22
31 33 34 35 36 38 39 39 39 40 40 40 40 40 43 40 41 45 41 43 40 39 37 36 34 33 32 31 29 29 30 30 30 30 30 27 30 27 27 25 27 26 25 25 26
30 31 33 34 36 37 38 39 40 40 40 40 40 40 43 40 40 42 47 44 43 41 39 38 36 36 33 30 29 31 31 32 30 32 30 31 28 28 27 28 30 29 27 27 28
30 31 32 34 35 36 38 39 40 40 39 39 40 38 41 38 37 37 42 46 43 42 39 39 38 37 35 34 36 33 32 32 32 31 32 34 35 32 31 31 32 32 32 30 29
30 31 32 34 35 35 36 35 35 37 40 41 38 40 37 32 36 35 36 42 44 42 43 41 40 44 47 40 35 31 31 32 30 32 31 34 35 35 33 31 32 32 32 30 29
30 30 30 32 33 35 35 35 35 34 38 43 46 49 47 41 40 38 35 38 43 48 43 41 49 50 41 41 39 37 36 35 31 33 30 32 36 35 34 34 33 33 31 30 26
26 25 26 28 29 31 33 37 36 37 37 40 43 44 43 44 45 43 38 38 41 46 48 49 48 47 44 42 41 41 41 38 35 29 31 31 38 35 35 34 34 33 32 30 29
24 24 25 26 24 23 25 29 33 34 34 38 37 42 42 40 44 44 43 38 40 44 49 49 50 42 49 47 45 45 40 36 33 31 33 27 35 33 35 36 34 32 30 32 30
24 25 25 24 23 20 20 20 23 28 28 31 34 34 38 40 36 39 44 41 44 43 42 53 50 53 49 48 44 44 38 37 35 36 29 34 29 36 32 35 36 33 32 31 31
24 24 24 24 20 18 18 18 18 23 29 27 29 32 33 37 39 36 36 44 41 44 44 52 47 47 51 48 42 38 38 33 34 33 33 42 34 42 36 36 34 33 33 32 29
25 25 23 22 18 14 14 14 17 22 22 25 26 28 33 31 35 38 37 42 44 41 45 51 52 53 44 48 47 39 35 32 33 31 41 41 34 46 30 35 37 35 34 33 30
26 25 23 22 18 13 11 14 16 20 22 15 17 23 26 24 28 32 35 34 46 43 37 45 47 51 50 51 47 49 44 35 33 37 44 34 37 46 40 44 31 29 33 34 33
26 24 20 15 11 8 10 13 11 13 15 18 17 18 21 23 23 24 32 40 34 45 41 38 46 40 50 50 46 43 47 51 35 31 29 35 41 42 36 38 36 36 34 32 31
24 22 15 14 6 7 10 15 13 12 9 9 20 17 17 20 20 20 21 28 40 38 38 38 34 45 46 44 50 49 41 43 41 37 34 33 36 38 41 44 37 34 33 33 34
21 18 13 14 5 7 11 14 16 16 15 12 11 17 19 14 16 19 18 16 18 32 39 33 36 32 32 44 47 48 47 42 36 43 40 42 44 38 38 35 36 36 34 32 32
19 16 13 9 8 9 12 11 16 20 17 20 19 14 16 16 19 21 22 17 14 18 26 41 31 38 43 36 36 40 45 48 41 39 40 44 49 33 41 42 39 33 32 32 29
20 16 13 10 10 11 13 14 17 22 21 18 20 20 20 22 19 19 18 18 23 19 20 21 32 34 38 36 45 39 40 39 39 43 44 40 45 46 47 38 34 34 36 33 32
19 16 14 12 10 10 11 12 13 18 22 26 24 23 22 22 23 23 25 21 17 13 20 19 26 33 37 39 32 43 47 44 42 40 43 47 45 49 41 45 45 44 38 34 32
18 16 14 13 13 15 16 16 17 13 15 18 20 25 28 27 27 30 29 28 27 27 23 20 20 26 35 42 36 34 38 36 37 39 38 40 42 48 45 44 43 42 40 36 34
19 18 16 18 17 15 15 15 19 21 19 17 22 24 26 28 27 27 25 25 27 24 25 25 25 20 21 29 38 44 38 36 39 38 37 41 45 47 45 43 42 44 41 40 40
20 20 17 17 16 16 15 15 17 22 24 24 23 23 24 27 26 28 30 31 31 31 32 30 26 22 24 23 22 23 30 39 37 40 38 38 42 46 48 44 43 43 43 46 43
Wind_Direction
266 264 263 262 261 259 258 256 255 254 254 254 254 251 250 250 251 247 242 239 236 235 236 236 234 235 230 226 223 220 219 217 221 219 226 241 238 230 233 222 231 226 253 243 178
268 266 265 263 262 261 259 257 256 255 253 253 254 254 252 251 247 245 245 243 239 237 234 232 233 235 229 226 224 220 218 216 220 224 234 242 238 238 229 227 233 238 243 190 187
271 268 266 264 263 262 260 259 256 255 254 253 252 252 252 251 244 241 237 237 237 232 231 232 232 230 228 225 224 223 223 222 225 233 239 240 237 238 224 232 232 228 221 204 204
273 271 268 265 263 262 261 259 257 255 254 253 252 251 250 243 239 231 236 237 237 230 228 229 229 228 228 226 225 228 228 226 230 234 241 239 243 239 233 237 239 235 222 216 221
275 272 269 266 264 263 261 259 257 255 254 252 252 250 245 239 235 235 238 237 235 232 229 230 229 229 229 229 228 228 230 230 230 239 240 242 239 237 238 239 241 234 228 224 228
278 273 270 267 264 264 261 259 257 255 253 252 250 250 243 241 238 239 239 238 235 235 234 231 231 231 235 231 229 229 231 234 233 239 239 240 238 233 238 237 238 234 237 235 234
281 276 272 268 265 264 262 260 257 254 252 250 249 247 243 240 239 239 239 237 237 235 235 232 233 231 231 234 234 236 238 237 230 234 237 238 241 233 236 240 240 243 243 244 243
285 279 274 270 267 264 261 260 257 253 251 249 248 247 244 243 241 239 239 238 237 236 236 235 235 234 232 235 237 236 234 234 231 229 236 232 241 239 241 241 247 249 250 251 248
291 284 278 273 269 266 262 260 257 252 250 247 246 244 246 244 241 240 237 237 236 238 236 234 233 230 232 230 235 233 234 232 235 231 234 234 240 240 241 244 249 251 253 253 254
295 289 282 276 272 268 263 260 255 250 247 244 243 244 242 241 240 237 235 232 233 234 234 230 230 228 228 226 228 231 234 236 233 233 233 240 244 245 246 245 248 251 254 254 254
299 293 288 280 274 269 265 258 250 247 242 240 239 238 241 242 239 239 236 231 229 230 229 229 228 227 226 229 232 233 235 238 238 238 239 241 245 246 245 244 250 252 253 252 252
303 298 293 285 277 270 262 252 248 248 248 242 242 242 242 244 243 241 236 229 227 229 227 230 230 229 230 230 232 235 237 239 242 241 239 245 246 247 244 244 248 251 251 247 249
309 306 304 295 285 272 261 253 249 248 247 244 240 240 239 237 238 238 234 233 231 229 226 228 232 231 229 229 230 233 234 237 240 246 245 247 251 245 246 244 246 249 248 245 243
312 309 309 307 294 278 267 256 245 242 246 243 239 241 235 236 240 235 234 234 230 232 227 231 230 231 228 230 229 234 232 238 239 239 242 236 250 242 242 243 241 247 246 242 242
315 312 311 310 298 278 266 258 244 232 243 239 234 235 232 229 235 237 231 231 233 232 227 228 226 226 231 230 228 237 234 235 238 242 245 244 248 243 237 243 242 243 245 242 242
318 314 313 313 301 277 266 249 241 230 239 242 230 229 230 234 236 238 231 231 233 232 235 233 230 228 230 232 232 234 235 236 238 237 239 238 235 247 239 239 242 240 242 244 246
321 317 311 310 306 285 255 237 230 231 236 234 232 229 231 233 234 232 231 227 226 226 227 232 231 231 228 230 230 229 228 234 236 233 237 236 235 240 242 241 240 240 241 245 247
324 319 311 304 298 280 240 229 240 234 234 238 232 229 228 229 234 231 233 233 228 227 230 227 231 226 225 228 228 227 224 227 231 233 238 232 235 238 241 241 243 242 243 246 249
328 326 319 316 292 256 225 231 244 234 241 241 245 238 232 231 233 229 232 233 233 224 228 226 231 230 227 228 224 229 226 230 239 240 240 237 241 245 241 243 242 245 247 249 252
331 330 324 320 282 238 235 240 236 241 256 250 232 236 237 231 228 229 229 236 232 230 228 233 237 231 230 227 228 229 229 229 231 235 238 239 240 238 237 241 246 247 247 250 259
334 334 327 334 267 253 253 246 242 246 249 247 243 249 240 241 235 231 239 249 242 230 227 232 233 231 228 224 226 227 229 232 236 233 237 241 242 237 240 241 243 247 248 248 259
337 332 327 320 287 268 261 258 248 249 250 247 241 252 240 241 243 239 242 232 231 235 232 227 234 234 235 231 230 231 232 231 234 234 236 239 242 240 238 243 245 246 246 252 258
338 328 330 310 293 281 270 267 260 255 251 245 244 242 244 248 245 241 241 243 234 230 224 230 229 237 239 239 237 234 233 233 235 237 238 239 243 241 244 246 247 242 248 253 254
341 335 325 316 293 292 302 277 270 260 250 248 249 252 254 252 246 247 242 243 245 241 226 228 235 237 239 240 236 234 235 234 236 238 239 239 245 242 241 242 243 247 250 254 251
337 332 325 311 304 295 285 274 273 273 263 253 250 245 246 251 254 250 246 249 244 244 239 231 240 238 246 243 239 239 236 236 237 238 240 242 241 242 242 243 244 247 248 250 246
331 330 325 309 301 294 297 279 276 268 262 263 253 251 250 248 248 258 259 250 244 243 241 240 243 240 248 242 241 239 240 239 238 241 245 245 247 245 246 246 246 247 248 246 245
328 325 322 312 307 302 287 286 283 282 264 256 260 259 257 255 255 257 255 249 248 246 245 243 247 246 249 242 239 237 235 236 239 243 244 245 246 246 247 248 248 249 247 245 245